OPS 4682 DEB, 51508

Orbit data source: Space-Track

OPS 4682 DEB, 51508 is space debris in LEO originally from a launch on Sat, 03 Apr 1965 UTC launched from the Air Force Western Test Range (AFWTR). Debris objects in space refer to the collection of defunct objects orbiting the Earth. Examples of debris include non-operational satellites, rocket bodies, and fragments generated from explosions, collisions, or faulty payload assembly.

Loading next visibility...
Identifier
51508, 1965-027GU
Orbit
LEO
Country
Flag of USUS
Related business
Manufacturer
Unknown
Mission
Spacecraft
Bus & Motor
Unknown
Mass
Unknown
Launch date (UTC)
1965-04-03 (61 years ago)
Launch vehicle
Unknown
Launch site
Air Force Western Test Range (AFWTR)
Object type
Payload
Rocket body
Debris
Shape & HBR
Unknown
Radar Cross Section
Medium (>0.1 m² and <1 m²)

Expand to show TLE details & history
Last TLE update: 2 days ago

TLE from 2 days ago
0 OPS 4682 DEB
1 51508U 65027GU  26206.20366832  .00000603  00000-0  20360-2 0  9997
2 51508  90.2536  17.0754 0025521 314.0118 224.1301 12.97970405609128
Epoch: 2026-07-25T04:53Z
TLE epoch observation values (Epoch: 2026-07-25T04:53:16.942Z)
Latitude
1.96065°
Longitude
-179.15587°
Altitude
1,286.733 km
Speed
7.206 km/s
True Right ascension
13h 08m 20s
True Declination
1° 56' 59"
Sunlit
Object was in daylight at epoch
Visualization orbit readout
Latitude
Unknown
Longitude
Unknown
Altitude
Unknown
Speed
Unknown
Apparent Right ascension
Unknown
Apparent Declination
Unknown
Sunlit
N/A
Visualization observer readout
Local Sidereal Time
18:07:00
Azimuth
Unknown
Elevation
Unknown
Doppler factor
Unknown
Orbital elements
Apogee altitude
1,286.691 km
Perigee altitude
1,247.667 km
Semi-major axis
7,645.316 km
Eccentricity
0.00255
Inclination
90.2536°
RAAN
17.0754°
Arg. of periapsis
314.0118°
True anomaly
223.92694°
Mean anomaly
224.1301°
Eccentric anomaly
224.02847°
Mean motion
3.24676 °/min
Orbital period
110.88 mins
BSTAR
0.002036
Loading maneuver chart data...
Computing Atmospheric mass density...
Loading historical data...
Loading historical data...
Loading historical data...
Loading historical data...
Loading historical data...
Loading historical data...
Loading historical data...

Documentation

Showing up to 5 results
|